Regional Weather Roundup
Issued by NWS

Home | Current Version | Previous Version | Graphics & Text | Print | Product List | Glossary On
Versions: 1 2 3 4 5 6 7 8 9 10 11 12 13 14 15 16 17 18 19 20 21 22 23 24 25 26 27
000
ASUS45 KCYS 222010
RWRWY

WYOMING REGIONAL WEATHER ROUNDUP
NATIONAL WEATHER SERVICE CHEYENNE WY
200 PM MDT SAT APR 22 2017

NOTE:  "FAIR" INDICATES FEW OR NO CLOUDS BELOW 12,000 FEET
WITH NO SIGNIFICANT WEATHER AND/OR OBSTRUCTIONS TO VISIBILITY.

WYZ001-222100-
YELLOWSTONE NATIONAL PARK

CITY           SKY/WX    TMP DP  RH WIND       PRES   REMARKS
LK YELLOWSTONE   N/A     42  18  37 VRB5      30.19F
W YELLOWSTONE  NOT AVBL

$$
WYZ002>013-054>058-071-098>099-222100-
NORTHERN WYOMING

CITY           SKY/WX    TMP DP  RH WIND       PRES   REMARKS
JACKSON        SUNNY     48  27  43 SW12G23   30.20F
CODY           PTSUNNY   52  37  56 SE18      30.13F
GREYBULL       FAIR      52  37  56 SE15G21   30.17F
WORLAND        FAIR      52  40  63 S12       30.18F
SHERIDAN       PTSUNNY   56  40  55 SE13      30.14F
BUFFALO        CLOUDY    49  37  63 S14       30.19F
GILLETTE       CLOUDY    50  37  61 MISG      30.20F
HULETT         CLOUDY    54  37  54 SW13      30.21F
NEWCASTLE      FAIR      55  32  41 S12G23    30.22F

$$
WYZ014>020-022>026-101>103-222100-
CENTRAL WYOMING

CITY           SKY/WX    TMP DP  RH WIND       PRES   REMARKS
BIG PINEY      FAIR      50  25  37 SW12G17   30.23F
PINEDALE       MOCLDY    45  25  45 S7        30.24F
DUBOIS         FAIR      46  25  42 S7        30.17F
LANDER         FAIR      55  32  41 SE9       30.15F
RIVERTON       FAIR      52  33  48 SE14      30.19F
CASPER         PTSUNNY   50  37  61 W5        30.22F
DOUGLAS        CLOUDY    53  35  50 CALM      30.23F

$$
WYZ021-027>030-104>119-222100-
SOUTHERN WYOMING

CITY           SKY/WX    TMP DP  RH WIND       PRES   REMARKS
EVANSTON       FAIR      51  25  36 SE9       30.20F
KEMMERER         N/A     46  19  34 E9        30.23F
FORT BRIDGER   FAIR      52  21  30 NE6G17    30.24F
ROCK SPRINGS   FAIR      53  22  29 SE12G20   30.22F
DIXON            N/A     51  26  37 W5        30.26F
RAWLINS        PTSUNNY   51  22  31 W16       30.23F
SARATOGA       FAIR      50  23  34 NW8       30.25F
LARAMIE        FAIR      46  26  45 SE9       30.25F
CHEYENNE       FAIR      47  31  53 SW5       30.27F
TORRINGTON     FAIR      59  32  36 VRB3      30.21F
PINE BLUFFS    MOCLDY    52  32  46 SW9G22    30.27F

$$




USA.gov is the U.S. government's official web portal to all federal, state and local government web resources and services.